Погода в Дилижане

Армения     40˚44′30″N   44˚52′19″E
темп.,
°C
ветер,
м/с
пор.,
м/с
влажн.,
%
обл.,
%
осадки,
мм/ч
давл.,
гПа
погр.,
м
6 декабря, вс
вс601:00−4˚св2294100 0.3 1026199
04:00−5˚всв1193100 0.4 1026154
07:00−5˚св1194100 0.1 1026135
10:00−5˚св2290100 0.3 1025282
13:00−4˚св3387100 0.3 1024384
16:00−4˚св3390100 0.8 1023349
19:00−6˚св2295100 0.5 1026233
22:00−7˚св2295100 0.9 1027197
7 декабря, пн
пн701:00−7˚св1295100 0.3 1028166
04:00−7˚св1295100 0.5 1029164
07:00−8˚св1195100 0.1 1030138
10:00−7˚всв119099 0.2 1031208
13:00−5˚всв2283100 0.1 1028402
16:00−5˚всв2290100 0.3 1028275
19:00−7˚вюв1196100 0.1 103074
22:00−7˚вюв1195100 0.2 103076
8 декабря, вт
вт801:00−7˚ю1193100 0.0 103047
04:00−7˚ююз1192100 0.0 102939
07:00−7˚ююз228998 0.0 102940
10:00−4˚ююз338373 0.0 1028148
13:00−1˚ююз23690 0.0 1026577
16:00−2˚ююз237428 0.0 1025356
19:00−5˚ююз328252 0.0 102742
22:00−5˚ююз227955 0.0 102733
9 декабря, ср
ср901:00−5˚ююз228075 0.0 102732
04:00−4˚ююз228188 0.0 102735
07:00−4˚ююз2282100 0.0 102634
10:00−2˚ююз2280100 0.0 102685
13:00юз127299 0.0 1024395
16:00зюз018098 0.0 1023237
19:00−2˚зюз1193100 0.1 102424
22:00−2˚зсз1197100 1.4 102668
10 декабря, чт
чт1001:00−2˚зсз1198100 1.3 102754
04:00−3˚сз1198100 2.0 102831
07:00−4˚сз019789 0.2 102821
10:00−3˚ююз009163 0.2 102973
13:00−1˚св219536 0.0 1027225
16:00−2˚св229768 0.1 1026136
19:00−3˚св1298100 0.1 1028102
22:00−4˚в1197100 0.1 1029109